| time (UTC) | temp F | wind direction | speed MPH | gust MPH | rain 1hr in | rain 24hr in | rain mn in | humidity % | barometer mb |
| 20260904213017 | 99 | 100 | 2.0 | 8.0 | 0.00 | 0.00 | 0.00 | 41 | 988.9 |
| 20260904211515 | 99 | 198 | 2.0 | 8.0 | 0.00 | 0.00 | 0.00 | 43 | 989.0 |
| 20260904210011 | 98 | 176 | 4.0 | 9.0 | 0.00 | 0.00 | 0.00 | 42 | 989.2 |
| 20260904204509 | 99 | 160 | 3.0 | 10.0 | 0.00 | 0.00 | 0.00 | 42 | 989.4 |
| 20260904203006 | 98 | 127 | 4.0 | 13.0 | 0.00 | 0.00 | 0.00 | 42 | 989.5 |
| 20260904201502 | 98 | 203 | 4.0 | 8.0 | 0.00 | 0.00 | 0.00 | 43 | 989.7 |
| 20260904200101 | 98 | 115 | 3.0 | 9.0 | 0.00 | 0.00 | 0.00 | 44 | 990.1 |
| 20260904194559 | 98 | 92 | 2.0 | 9.0 | 0.00 | 0.00 | 0.00 | 45 | 990.2 |
| 20260904193052 | 97 | 91 | 5.0 | 13.0 | 0.00 | 0.00 | 0.00 | 48 | 990.4 |
| 20260904191549 | 96 | 46 | 2.0 | 10.0 | 0.00 | 0.00 | 0.00 | 48 | 990.6 |
| 20260904190047 | 96 | 246 | 4.0 | 9.0 | 0.00 | 0.00 | 0.00 | 49 | 990.8 |
| 20260904184559 | 95 | 101 | 4.0 | 9.0 | 0.00 | 0.00 | 0.00 | 51 | 991.0 |
| 20260904183040 | 95 | 188 | 2.0 | 14.0 | 0.00 | 0.00 | 0.00 | 52 | 991.2 |
| 20260904181541 | 94 | 131 | 4.0 | 11.0 | 0.00 | 0.00 | 0.00 | 53 | 991.4 |
| 20260904180039 | 93 | 131 | 2.0 | 11.0 | 0.00 | 0.00 | 0.00 | 54 | 991.6 |
| 20260904174531 | 92 | 163 | 1.0 | 5.0 | 0.00 | 0.00 | 0.00 | 56 | 991.7 |
| 20260904173029 | 92 | 265 | 1.0 | 7.0 | 0.00 | 0.00 | 0.00 | 55 | 992.0 |
| 20260904171527 | 91 | 302 | 2.0 | 7.0 | 0.00 | 0.00 | 0.00 | 57 | 992.2 |
| 20260904170023 | 90 | 236 | 3.0 | 9.0 | 0.00 | 0.00 | 0.00 | 57 | 992.4 |
| 20260904164521 | 89 | 229 | 2.0 | 7.0 | 0.00 | 0.00 | 0.00 | 59 | 992.5 |
| 20260904163024 | 89 | 256 | 2.0 | 7.0 | 0.00 | 0.00 | 0.00 | 60 | 992.5 |
| 20260904161519 | 89 | 240 | 3.0 | 8.0 | 0.00 | 0.00 | 0.00 | 60 | 992.6 |
| 20260904160016 | 87 | 219 | 2.0 | 9.0 | 0.00 | 0.00 | 0.00 | 64 | 992.5 |
| 20260904154511 | 86 | 211 | 4.0 | 7.0 | 0.00 | 0.00 | 0.00 | 65 | 992.4 |
| 20260904153010 | 86 | 200 | 2.0 | 7.0 | 0.00 | 0.00 | 0.00 | 68 | 992.4 |
| 20260904151508 | 86 | 214 | 3.0 | 9.0 | 0.00 | 0.00 | 0.00 | 70 | 992.3 |
| 20260904150012 | 84 | 329 | 2.0 | 6.0 | 0.00 | 0.00 | 0.00 | 76 | 992.3 |
| 20260904144501 | 83 | 291 | 4.0 | 8.0 | 0.00 | 0.00 | 0.00 | 78 | 992.3 |
| 20260904143058 | 82 | 111 | 3.0 | 9.0 | 0.00 | 0.00 | 0.00 | 80 | 992.3 |
| 20260904141611 | 81 | 217 | 1.0 | 5.0 | 0.00 | 0.00 | 0.00 | 81 | 992.4 |
| 20260904140055 | 80 | 78 | 2.0 | 6.0 | 0.00 | 0.00 | 0.00 | 82 | 992.3 |
| 20260904134550 | 80 | 149 | 2.0 | 5.0 | 0.00 | 0.00 | 0.00 | 82 | 992.2 |
| 20260904133048 | 80 | 144 | 2.0 | 5.0 | 0.00 | 0.00 | 0.00 | 82 | 992.1 |
| 20260904131605 | 79 | 123 | 3.0 | 9.0 | 0.00 | 0.00 | 0.00 | 82 | 992.0 |
| 20260904130044 | 79 | 98 | 2.0 | 7.0 | 0.00 | 0.00 | 0.00 | 82 | 991.8 |
| 20260904124544 | 79 | 157 | 2.0 | 8.0 | 0.00 | 0.00 | 0.00 | 82 | 991.6 |
| 20260904123055 | 79 | 108 | 1.0 | 7.0 | 0.00 | 0.00 | 0.00 | 82 | 991.5 |
| 20260904121537 | 79 | 137 | 2.0 | 4.0 | 0.00 | 0.00 | 0.00 | 82 | 991.4 |
| 20260904120034 | 80 | 151 | 1.0 | 4.0 | 0.00 | 0.00 | 0.00 | 82 | 991.3 |
| 20260904114542 | 80 | 136 | 1.0 | 5.0 | 0.00 | 0.00 | 0.00 | 82 | 991.2 |
| 20260904113033 | 80 | 178 | 1.0 | 4.0 | 0.00 | 0.00 | 0.00 | 82 | 991.2 |
| 20260904111533 | 80 | 224 | 0.0 | 5.0 | 0.00 | 0.00 | 0.00 | 82 | 991.1 |
| 20260904110035 | 80 | 158 | 1.0 | 5.0 | 0.00 | 0.00 | 0.00 | 82 | 991.1 |
| 20260904104529 | 80 | 143 | 1.0 | 4.0 | 0.00 | 0.00 | 0.00 | 82 | 990.9 |
| 20260904103028 | 80 | 113 | 0.0 | 3.0 | 0.00 | 0.00 | 0.00 | 82 | 990.9 |
| 20260904101527 | 80 | 121 | 0.0 | 3.0 | 0.00 | 0.00 | 0.00 | 82 | 990.8 |
| 20260904100027 | 80 | 93 | 1.0 | 5.0 | 0.00 | 0.00 | 0.00 | 81 | 990.8 |
| 20260904094526 | 80 | 166 | 0.0 | 4.0 | 0.00 | 0.00 | 0.00 | 81 | 990.7 |
| 20260904093023 | 80 | 186 | 0.0 | 6.0 | 0.00 | 0.00 | 0.00 | 81 | 990.7 |
| 20260904091527 | 80 | 108 | 1.0 | 4.0 | 0.00 | 0.00 | 0.00 | 81 | 990.7 |
| 20260904090025 | 80 | 194 | 2.0 | 6.0 | 0.00 | 0.00 | 0.00 | 80 | 990.7 |
| 20260904084521 | 80 | 180 | 1.0 | 5.0 | 0.00 | 0.00 | 0.00 | 80 | 990.7 |
| 20260904083022 | 80 | 170 | 1.0 | 3.0 | 0.00 | 0.00 | 0.00 | 80 | 990.6 |
| 20260904081519 | 80 | 104 | 0.0 | 4.0 | 0.00 | 0.00 | 0.00 | 79 | 990.6 |
| 20260904080020 | 80 | 169 | 1.0 | 5.0 | 0.00 | 0.00 | 0.00 | 79 | 990.5 |
| 20260904074519 | 80 | 221 | 2.0 | 6.0 | 0.00 | 0.00 | 0.00 | 78 | 990.5 |
| 20260904073016 | 81 | 115 | 1.0 | 7.0 | 0.00 | 0.00 | 0.00 | 77 | 990.6 |
| 20260904071528 | 81 | 82 | 2.0 | 5.0 | 0.00 | 0.00 | 0.00 | 77 | 990.7 |
| 20260904070013 | 81 | 112 | 1.0 | 4.0 | 0.00 | 0.00 | 0.00 | 76 | 990.8 |
| 20260904064509 | 81 | 173 | 1.0 | 4.0 | 0.00 | 0.00 | 0.00 | 76 | 991.0 |
| 20260904063009 | 81 | 174 | 1.0 | 6.0 | 0.00 | 0.00 | 0.00 | 75 | 990.9 |
| 20260904061507 | 81 | 232 | 1.0 | 7.0 | 0.00 | 0.00 | 0.00 | 74 | 991.0 |
| 20260904060004 | 81 | 105 | 2.0 | 6.0 | 0.00 | 0.00 | 0.00 | 72 | 991.0 |
| 20260904054503 | 81 | 97 | 2.0 | 7.0 | 0.00 | 0.00 | 0.00 | 71 | 991.1 |
| 20260904053100 | 81 | 114 | 1.0 | 4.0 | 0.00 | 0.00 | 0.00 | 70 | 990.9 |
| 20260904051559 | 82 | 40 | 1.0 | 5.0 | 0.00 | 0.00 | 0.00 | 69 | 990.8 |
| 20260904050056 | 82 | 125 | 2.0 | 4.0 | 0.00 | 0.00 | 0.00 | 67 | 990.8 |
| 20260904044558 | 82 | 85 | 1.0 | 5.0 | 0.00 | 0.00 | 0.00 | 66 | 990.8 |
| 20260904043054 | 82 | 146 | 1.0 | 8.0 | 0.00 | 0.00 | 0.00 | 66 | 990.6 |
| 20260904041554 | 83 | 158 | 2.0 | 9.0 | 0.00 | 0.00 | 0.00 | 65 | 990.8 |
| 20260904040053 | 83 | 128 | 2.0 | 5.0 | 0.00 | 0.00 | 0.00 | 65 | 990.8 |
| 20260904034601 | 83 | 217 | 3.0 | 6.0 | 0.00 | 0.00 | 0.00 | 66 | 990.8 |
| 20260904033052 | 83 | 138 | 3.0 | 7.0 | 0.00 | 0.00 | 0.00 | 66 | 990.9 |
| 20260904031551 | 84 | 188 | 2.0 | 9.0 | 0.00 | 0.00 | 0.00 | 66 | 990.8 |
| 20260904030051 | 84 | 133 | 5.0 | 9.0 | 0.00 | 0.00 | 0.00 | 65 | 990.8 |
| 20260904024550 | 84 | 150 | 4.0 | 10.0 | 0.00 | 0.00 | 0.00 | 64 | 990.5 |
| 20260904023049 | 85 | 155 | 1.0 | 5.0 | 0.00 | 0.00 | 0.00 | 64 | 990.3 |
| 20260904021549 | 85 | 108 | 1.0 | 7.0 | 0.00 | 0.00 | 0.00 | 66 | 990.0 |
| 20260904020049 | 85 | 141 | 4.0 | 11.0 | 0.00 | 0.00 | 0.00 | 66 | 989.7 |
| 20260904014549 | 86 | 121 | 3.0 | 13.0 | 0.00 | 0.00 | 0.00 | 65 | 989.4 |
| 20260904013049 | 86 | 130 | 7.0 | 13.0 | 0.00 | 0.00 | 0.00 | 64 | 989.3 |
| 20260904011548 | 87 | 137 | 4.0 | 12.0 | 0.00 | 0.00 | 0.00 | 60 | 989.0 |
| 20260904010053 | 88 | 135 | 2.0 | 8.0 | 0.00 | 0.00 | 0.00 | 59 | 988.8 |
| 20260904004557 | 88 | 139 | 6.0 | 13.0 | 0.00 | 0.00 | 0.00 | 59 | 988.9 |
| 20260904003045 | 89 | 84 | 6.0 | 11.0 | 0.00 | 0.00 | 0.00 | 59 | 988.7 |
| 20260904001543 | 89 | 89 | 4.0 | 10.0 | 0.00 | 0.00 | 0.00 | 59 | 988.7 |
| 20260904000056 | 90 | 94 | 4.0 | 12.0 | 0.00 | 0.00 | 0.00 | 58 | 988.6 |
| 20260903234545 | 91 | 107 | 4.0 | 11.0 | 0.00 | 0.00 | 0.00 | 57 | 988.5 |
| 20260903233039 | 91 | 93 | 3.0 | 11.0 | 0.00 | 0.00 | 0.00 | 57 | 988.3 |
| 20260903231538 | 92 | 123 | 2.0 | 7.0 | 0.00 | 0.00 | 0.00 | 57 | 988.1 |
| 20260903230036 | 92 | 131 | 4.0 | 11.0 | 0.00 | 0.00 | 0.00 | 57 | 988.1 |
| 20260903224538 | 93 | 51 | 5.0 | 12.0 | 0.00 | 0.00 | 0.00 | 56 | 988.3 |
| 20260903223038 | 93 | 109 | 3.0 | 11.0 | 0.00 | 0.00 | 0.00 | 57 | 988.0 |
| 20260903221532 | 94 | 120 | 3.0 | 11.0 | 0.00 | 0.00 | 0.00 | 55 | 988.1 |
| 20260903220039 | 94 | 162 | 3.0 | 12.0 | 0.00 | 0.00 | 0.00 | 55 | 988.1 |
| 20260903214526 | 93 | 126 | 5.0 | 10.0 | 0.00 | 0.00 | 0.00 | 56 | 988.2 |